Terminal Aerodrome Forecast
Issued by NWS

Home | Current Version | Previous Version | Text Only | Print | Product List | Glossary On
Versions: 1 2 3 4 5 6 7 8 9 10 11 12 13 14 15 16 17 18 19 20 21 22 23 24 25 26 27 28 29 30 31 32 33 34 35 36 37 38 39 40 41 42 43
000
FTUS43 KDTX 211127
TAFPTK
TAF
KPTK 211127Z 2112/2212 33008KT 2SM -SHRA BR OVC012
     FM211300 33009KT P6SM OVC015
     FM211600 34012G20KT P6SM OVC025
     FM212300 36008KT P6SM OVC025=

USA.gov is the U.S. government's official web portal to all federal, state and local government web resources and services.